Time,TemperatureF,DewpointF,PressureIn,WindDirection,WindDirectionDegrees,WindSpeedMPH,WindSpeedGustMPH,Humidity,HourlyPrecipIn,Conditions,Clouds,dailyrainin,SoftwareType,DateUTC
2013-08-25 00:21:00,59.0,48.0,-100.00,ENE,71,2.0,5.0,66,-99.99,,,-99.99,,2013-08-25 06:21:00,
2013-08-25 00:32:00,59.0,48.0,-100.00,ENE,71,2.0,5.0,66,-99.99,,,-99.99,,2013-08-25 06:32:00,
2013-08-25 01:22:00,55.0,49.0,-100.00,SW,230,3.0,6.0,82,-99.99,,,-99.99,,2013-08-25 07:22:00,
2013-08-25 01:32:00,55.0,49.0,-100.00,SW,230,3.0,6.0,82,-99.99,,,-99.99,,2013-08-25 07:32:00,
2013-08-25 02:21:00,55.0,48.0,-100.00,SSE,167,4.0,8.0,77,-99.99,,,-99.99,,2013-08-25 08:21:00,
2013-08-25 02:32:00,55.0,48.0,-100.00,SSE,167,4.0,8.0,77,-99.99,,,-99.99,,2013-08-25 08:32:00,
2013-08-25 03:22:00,54.0,47.0,-100.00,SW,221,3.0,5.0,78,-99.99,,,-99.99,,2013-08-25 09:22:00,
2013-08-25 03:34:00,54.0,47.0,-100.00,SW,221,3.0,5.0,78,-99.99,,,-99.99,,2013-08-25 09:34:00,
2013-08-25 04:22:00,52.0,47.0,-100.00,WSW,242,4.0,7.0,82,-99.99,,,-99.99,,2013-08-25 10:22:00,
2013-08-25 04:33:00,52.0,47.0,-100.00,WSW,242,4.0,7.0,82,-99.99,,,-99.99,,2013-08-25 10:33:00,
2013-08-25 05:22:00,51.0,46.0,-100.00,WSW,240,5.0,9.0,82,-99.99,,,-99.99,,2013-08-25 11:22:00,
2013-08-25 05:33:00,51.0,46.0,-100.00,WSW,240,5.0,9.0,82,-99.99,,,-99.99,,2013-08-25 11:33:00,
2013-08-25 06:22:00,50.0,45.0,-100.00,SW,230,4.0,8.0,84,-99.99,,,-99.99,,2013-08-25 12:22:00,
2013-08-25 06:32:00,50.0,45.0,-100.00,SW,230,4.0,8.0,84,-99.99,,,-99.99,,2013-08-25 12:32:00,
2013-08-25 06:52:00,49.0,45.0,-100.00,SW,231,5.0,9.0,84,-99.99,,,-99.99,,2013-08-25 12:52:00,
2013-08-25 07:21:00,49.0,45.0,-100.00,WSW,238,4.0,7.0,84,-99.99,,,-99.99,,2013-08-25 13:21:00,
2013-08-25 07:32:00,49.0,45.0,-100.00,WSW,238,4.0,7.0,84,-99.99,,,-99.99,,2013-08-25 13:32:00,
2013-08-25 08:24:00,56.0,47.0,-100.00,SW,236,3.0,6.0,69,-99.99,,,-99.99,,2013-08-25 14:24:00,
2013-08-25 08:32:00,56.0,47.0,-100.00,SW,236,3.0,6.0,69,-99.99,,,-99.99,,2013-08-25 14:32:00,
2013-08-25 09:23:00,64.0,49.0,-100.00,SE,128,3.0,8.0,57,-99.99,,,-99.99,,2013-08-25 15:23:00,
2013-08-25 09:35:00,64.0,49.0,-100.00,SE,128,3.0,8.0,57,-99.99,,,-99.99,,2013-08-25 15:35:00,
2013-08-25 10:24:00,68.0,50.0,-100.00,SE,139,4.0,7.0,52,-99.99,,,-99.99,,2013-08-25 16:24:00,
2013-08-25 10:33:00,68.0,50.0,-100.00,SE,139,4.0,7.0,52,-99.99,,,-99.99,,2013-08-25 16:33:00,
2013-08-25 11:22:00,72.0,49.0,-100.00,SE,132,4.0,8.0,44,-99.99,,,-99.99,,2013-08-25 17:22:00,
2013-08-25 11:33:00,72.0,49.0,-100.00,SE,132,4.0,8.0,44,-99.99,,,-99.99,,2013-08-25 17:33:00,
2013-08-25 12:21:00,73.0,46.0,-100.00,North,7,3.0,9.0,37,-99.99,,,-99.99,,2013-08-25 18:21:00,
2013-08-25 12:32:00,73.0,46.0,-100.00,North,7,3.0,9.0,37,-99.99,,,-99.99,,2013-08-25 18:32:00,
2013-08-25 13:22:00,77.0,48.0,-100.00,SSW,194,3.0,8.0,35,-99.99,,,-99.99,,2013-08-25 19:22:00,
2013-08-25 13:32:00,77.0,48.0,-100.00,SSW,194,3.0,8.0,35,-99.99,,,-99.99,,2013-08-25 19:32:00,
2013-08-25 14:23:00,75.0,44.0,-100.00,West,272,5.0,12.0,32,-99.99,,,-99.99,,2013-08-25 20:23:00,
2013-08-25 14:33:00,75.0,44.0,-100.00,West,272,5.0,12.0,32,-99.99,,,-99.99,,2013-08-25 20:33:00,
2013-08-25 15:22:00,75.0,43.0,-100.00,WNW,292,3.0,6.0,31,-99.99,,,-99.99,,2013-08-25 21:22:00,
2013-08-25 15:34:00,75.0,43.0,-100.00,WNW,292,3.0,6.0,31,-99.99,,,-99.99,,2013-08-25 21:34:00,
2013-08-25 16:24:00,75.0,43.0,-100.00,WNW,287,2.0,6.0,32,-99.99,,,-99.99,,2013-08-25 22:24:00,
2013-08-25 16:34:00,75.0,43.0,-100.00,WNW,287,2.0,6.0,32,-99.99,,,-99.99,,2013-08-25 22:34:00,
2013-08-25 17:23:00,76.0,46.0,-100.00,SE,136,4.0,14.0,35,-99.99,,,-99.99,,2013-08-25 23:23:00,
2013-08-25 17:33:00,76.0,46.0,-100.00,SE,136,4.0,14.0,35,-99.99,,,-99.99,,2013-08-25 23:33:00,
2013-08-25 18:22:00,73.0,49.0,-100.00,SE,125,7.0,14.0,42,-99.99,,,-99.99,,2013-08-26 00:22:00,
2013-08-25 18:32:00,73.0,49.0,-100.00,SE,125,7.0,14.0,42,-99.99,,,-99.99,,2013-08-26 00:32:00,
2013-08-25 19:22:00,71.0,48.0,-100.00,ESE,109,6.0,13.0,44,-99.99,,,-99.99,,2013-08-26 01:22:00,
2013-08-25 19:32:00,71.0,48.0,-100.00,ESE,109,6.0,13.0,44,-99.99,,,-99.99,,2013-08-26 01:32:00,
2013-08-25 20:21:00,68.0,49.0,-100.00,ESE,109,5.0,14.0,49,-99.99,,,-99.99,,2013-08-26 02:21:00,
2013-08-25 20:32:00,68.0,49.0,-100.00,ESE,109,5.0,14.0,49,-99.99,,,-99.99,,2013-08-26 02:32:00,
2013-08-25 21:22:00,66.0,49.0,-100.00,SE,137,4.0,9.0,53,-99.99,,,-99.99,,2013-08-26 03:22:00,
2013-08-25 21:34:00,66.0,49.0,-100.00,SE,137,4.0,9.0,53,-99.99,,,-99.99,,2013-08-26 03:34:00,
2013-08-25 22:24:00,65.0,49.0,-100.00,East,93,8.0,14.0,56,-99.99,,,-99.99,,2013-08-26 04:24:00,
2013-08-25 22:34:00,65.0,49.0,-100.00,East,93,8.0,14.0,56,-99.99,,,-99.99,,2013-08-26 04:34:00,
2013-08-25 23:22:00,64.0,49.0,-100.00,East,91,7.0,14.0,59,-99.99,,,-99.99,,2013-08-26 05:22:00,
2013-08-25 23:33:00,64.0,49.0,-100.00,East,91,7.0,14.0,59,-99.99,,,-99.99,,2013-08-26 05:33:00,